When you browse on this site, cookies collect data to enhance your experience and personalize the content and advertising you see.
Visit our Privacy Policy to learn more. By continuing to use the site, you agree to this use of cookies and data.
  • In Hungary
  • List of Countries
  • For 7 days
  • Water Temperature
  • Weather Map
  • News
  • Weather Widgets
  • user-avatar
    Login

    Hourly Weather Cruz

    Today, 17 November, Sunday

    Time Temperature Precipitation Wind Pressure Humidity
    00:00 +26°C° 0 mm 5 mps 754 mmHg 89%
    01:00 +26°C° 0 mm 4 mps 754 mmHg 87%
    02:00 +26°C° 0 mm 4 mps 754 mmHg 86%
    03:00 +27°C° 0 mm 4 mps 754 mmHg 84%
    04:00 +27°C° 0 mm 4 mps 754 mmHg 83%
    05:00 +27°C° 0 mm 4 mps 755 mmHg 83%
    06:00 +27°C° 0 mm 4 mps 755 mmHg 82%
    07:00 +29°C° 0 mm 5 mps 756 mmHg 72%
    08:00 +32°C° 0 mm 6 mps 756 mmHg 63%
    09:00 +34°C° 0 mm 6 mps 757 mmHg 53%
    10:00 +35°C° 0 mm 6 mps 756 mmHg 49%
    11:00 +36°C° 0 mm 7 mps 756 mmHg 44%
    12:00 +39°C° 0 mm 7 mps 756 mmHg 39%
    13:00 +38°C° 0 mm 7 mps 755 mmHg 42%
    14:00 +36°C° 0 mm 7 mps 754 mmHg 44%
    15:00 +35°C° 0 mm 8 mps 753 mmHg 47%
    16:00 +33°C° 0 mm 7 mps 754 mmHg 55%
    17:00 +30°C° 0 mm 6 mps 754 mmHg 63%
    18:00 +28°C° 0 mm 6 mps 754 mmHg 71%
    19:00 +27°C° 0 mm 6 mps 755 mmHg 75%
    20:00 +27°C° 0 mm 5 mps 755 mmHg 80%
    21:00 +26°C° 0 mm 5 mps 756 mmHg 84%
    22:00 +26°C° 0 mm 5 mps 756 mmHg 87%
    23:00 +25°C° 0 mm 4 mps 756 mmHg 90%

    Tomorrow, 18 November, Monday

    Time Temperature Precipitation Wind Pressure Humidity
    00:00 +25°C° 0 mm 4 mps 755 mmHg 92%
    01:00 +25°C° 0 mm 4 mps 755 mmHg 90%
    02:00 +26°C° 0 mm 4 mps 755 mmHg 87%
    03:00 +26°C° 0 mm 4 mps 755 mmHg 85%
    04:00 +26°C° 0 mm 4 mps 756 mmHg 85%
    05:00 +26°C° 0 mm 4 mps 756 mmHg 85%
    06:00 +26°C° 0 mm 4 mps 756 mmHg 85%
    07:00 +29°C° 0 mm 4 mps 756 mmHg 73%
    08:00 +32°C° 0 mm 5 mps 757 mmHg 61%
    09:00 +35°C° 0 mm 5 mps 757 mmHg 49%
    10:00 +38°C° 0 mm 6 mps 757 mmHg 43%
    11:00 +39°C° 0 mm 6 mps 756 mmHg 38%
    12:00 +41°C° 0 mm 6 mps 756 mmHg 32%
    13:00 +40°C° 0 mm 7 mps 755 mmHg 34%
    14:00 +39°C° 0 mm 8 mps 755 mmHg 36%
    15:00 +39°C° 0 mm 8 mps 754 mmHg 38%
    16:00 +35°C° 0 mm 8 mps 754 mmHg 47%
    17:00 +33°C° 0 mm 8 mps 755 mmHg 56%
    18:00 +31°C° 0 mm 8 mps 755 mmHg 65%
    19:00 +29°C° 0 mm 7 mps 756 mmHg 67%
    20:00 +29°C° 0 mm 7 mps 756 mmHg 70%
    21:00 +28°C° 0 mm 7 mps 757 mmHg 72%
    22:00 +28°C° 0 mm 6 mps 756 mmHg 75%
    23:00 +28°C° 0 mm 6 mps 756 mmHg 78%

    Day after tomorrow, 19 November, Tuesday

    Time Temperature Precipitation Wind Pressure Humidity
    00:00 +27°C° 0 mm 6 mps 756 mmHg 81%
    01:00 +27°C° 0 mm 5 mps 756 mmHg 83%
    02:00 +27°C° 0 mm 5 mps 756 mmHg 84%
    03:00 +27°C° 0 mm 5 mps 755 mmHg 86%
    04:00 +27°C° 0 mm 5 mps 756 mmHg 83%
    05:00 +28°C° 0 mm 6 mps 756 mmHg 80%
    06:00 +28°C° 0 mm 6 mps 757 mmHg 77%
    07:00 +30°C° 0 mm 6 mps 757 mmHg 70%
    08:00 +32°C° 0 mm 6 mps 757 mmHg 63%
    09:00 +33°C° 0 mm 6 mps 757 mmHg 57%
    10:00 +35°C° 0 mm 6 mps 757 mmHg 49%
    11:00 +39°C° 0 mm 7 mps 756 mmHg 42%
    12:00 +41°C° 0 mm 7 mps 756 mmHg 34%
    13:00 +39°C° 0 mm 8 mps 755 mmHg 39%
    14:00 +38°C° 0 mm 8 mps 755 mmHg 43%
    15:00 +37°C° 0 mm 9 mps 754 mmHg 48%
    16:00 +34°C° 0 mm 8 mps 755 mmHg 56%
    17:00 +32°C° 0 mm 8 mps 755 mmHg 63%
    18:00 +29°C° 0 mm 7 mps 755 mmHg 71%
    19:00 +28°C° 0 mm 6 mps 755 mmHg 73%
    20:00 +28°C° 0 mm 6 mps 756 mmHg 75%
    21:00 +27°C° 0 mm 5 mps 756 mmHg 77%
    22:00 +27°C° 0 mm 5 mps 756 mmHg 80%
    23:00 +27°C° 0 mm 4 mps 756 mmHg 83%

    20 November, Wednesday

    Time Temperature Precipitation Wind Pressure Humidity
    00:00 +26°C° 0 mm 4 mps 756 mmHg 86%
    01:00 +27°C° 0 mm 5 mps 756 mmHg 83%
    02:00 +28°C° 0 mm 5 mps 756 mmHg 79%
    03:00 +28°C° 0 mm 6 mps 756 mmHg 75%
    04:00 +28°C° 0.1 mm 6 mps 756 mmHg 74%
    05:00 +28°C° 0.1 mm 5 mps 756 mmHg 74%
    06:00 +28°C° 0.1 mm 5 mps 757 mmHg 73%
    07:00 +30°C° 0 mm 5 mps 757 mmHg 64%
    08:00 +33°C° 0 mm 5 mps 757 mmHg 55%
    09:00 +35°C° 0 mm 5 mps 757 mmHg 46%
    10:00 +36°C° 0 mm 5 mps 757 mmHg 43%
    11:00 +38°C° 0 mm 6 mps 756 mmHg 40%
    12:00 +39°C° 0 mm 6 mps 756 mmHg 37%
    13:00 +38°C° 0 mm 7 mps 755 mmHg 41%
    14:00 +37°C° 0 mm 8 mps 755 mmHg 45%
    15:00 +35°C° 0 mm 9 mps 754 mmHg 48%
    16:00 +33°C° 0 mm 8 mps 755 mmHg 56%
    17:00 +31°C° 0 mm 8 mps 755 mmHg 63%
    18:00 +28°C° 0 mm 7 mps 755 mmHg 70%
    19:00 +28°C° 0 mm 7 mps 756 mmHg 72%
    20:00 +27°C° 0 mm 6 mps 756 mmHg 75%
    21:00 +27°C° 0 mm 6 mps 756 mmHg 78%
    22:00 +27°C° 0 mm 5 mps 756 mmHg 80%
    23:00 +26°C° 0 mm 4 mps 756 mmHg 83%

    21 November, Thursday

    Time Temperature Precipitation Wind Pressure Humidity
    00:00 +26°C° 0 mm 4 mps 755 mmHg 86%
    01:00 +26°C° 0 mm 4 mps 755 mmHg 82%
    02:00 +27°C° 0 mm 4 mps 755 mmHg 79%
    03:00 +28°C° 0 mm 5 mps 755 mmHg 76%
    04:00 +28°C° 0.1 mm 5 mps 755 mmHg 75%
    05:00 +28°C° 0.1 mm 5 mps 756 mmHg 74%
    06:00 +28°C° 0.1 mm 5 mps 756 mmHg 73%
    07:00 +30°C° 0 mm 6 mps 756 mmHg 64%
    08:00 +32°C° 0 mm 6 mps 757 mmHg 56%
    09:00 +34°C° 0 mm 6 mps 757 mmHg 48%
    10:00 +35°C° 0 mm 7 mps 757 mmHg 44%
    11:00 +36°C° 0 mm 7 mps 756 mmHg 41%
    12:00 +39°C° 0 mm 8 mps 756 mmHg 38%
    13:00 +38°C° 0 mm 8 mps 755 mmHg 40%
    14:00 +37°C° 0 mm 8 mps 754 mmHg 42%
    15:00 +35°C° 0 mm 8 mps 754 mmHg 44%
    16:00 +33°C° 0 mm 8 mps 754 mmHg 52%
    17:00 +30°C° 0 mm 7 mps 754 mmHg 60%
    18:00 +28°C° 0 mm 7 mps 755 mmHg 67%
    19:00 +28°C° 0 mm 6 mps 755 mmHg 71%
    20:00 +27°C° 0 mm 6 mps 755 mmHg 75%
    21:00 +27°C° 0 mm 6 mps 756 mmHg 79%
    22:00 +26°C° 0 mm 5 mps 756 mmHg 81%
    23:00 +26°C° 0 mm 5 mps 755 mmHg 83%

    22 November, Friday

    Time Temperature Precipitation Wind Pressure Humidity
    00:00 +26°C° 0 mm 5 mps 755 mmHg 85%
    01:00 +26°C° 0 mm 5 mps 755 mmHg 84%
    02:00 +26°C° 0 mm 5 mps 755 mmHg 83%
    03:00 +27°C° 0 mm 5 mps 754 mmHg 82%
    04:00 +27°C° 0.1 mm 5 mps 755 mmHg 79%
    05:00 +27°C° 0.1 mm 5 mps 755 mmHg 77%
    06:00 +27°C° 0.1 mm 5 mps 756 mmHg 75%
    07:00 +29°C° 0.1 mm 6 mps 756 mmHg 66%
    08:00 +32°C° 0.1 mm 6 mps 756 mmHg 57%
    09:00 +33°C° 0.1 mm 6 mps 757 mmHg 49%
    10:00 +35°C° 0 mm 6 mps 756 mmHg 43%
    11:00 +38°C° 0 mm 7 mps 756 mmHg 38%
    12:00 +39°C° 0 mm 7 mps 755 mmHg 33%
    13:00 +39°C° 0 mm 7 mps 755 mmHg 34%
    14:00 +38°C° 0 mm 8 mps 754 mmHg 36%
    15:00 +37°C° 0 mm 8 mps 753 mmHg 38%
    16:00 +34°C° 0 mm 7 mps 754 mmHg 47%
    17:00 +32°C° 0 mm 7 mps 754 mmHg 56%
    18:00 +29°C° 0 mm 6 mps 754 mmHg 65%
    19:00 +29°C° 0 mm 6 mps 755 mmHg 67%
    20:00 +29°C° 0 mm 6 mps 755 mmHg 69%
    21:00 +29°C° 0 mm 7 mps 756 mmHg 71%
    22:00 +29°C° 0 mm 6 mps 756 mmHg 72%
    23:00 +29°C° 0 mm 6 mps 755 mmHg 73%
    Show more